Tracking 32139 objects as of 15-Nov-2025
HD Live streaming from Space Station
objects crossing your sky now

STARLINK-35525

Track STARLINK-35525 now!
10-day predictions
STARLINK-35525 is classified as:


NORAD ID: 66134
Int'l Code: 2025-237W
Perigee: 425.3 km
Apogee: 426.4 km
Inclination: 53.2 °
Period: 92.9 minutes
Semi major axis: 6796 km
RCS: Unknown
Launch date: October 22, 2025
Source: United States (US)
Launch site: AIR FORCE WESTERN TEST RANGE (AFWTR)
Your satellite tracking list
Your tracking list is empty




NASA's NSSDC Master Catalog

Two Line Element Set (TLE):
1 66134U 25237W   25319.50003471 -.00041860  00000-0 -74816-3 0  9999
2 66134  53.1601 215.9223 0000843 109.3241 277.2582 15.49326685  5105
Source of the keplerian elements: AFSPC